Location: Hobi?a Gr?di?te
(45.4833°N, 22.7833°E)
Time: 11:03:18
(UTC+00:00)

Cosmos 1980 Rocket - Pass Details

Date: 28 January 2023
Orbit: 828 x 851 km, 71.0° (Epoch: 20 March)

Event Time Altitude Azimuth Distance (km) Brightness Sun altitude
Rises 16:48:53 0° 210° (SSW) 3,373 6.0 -14.0°
Reaches altitude 10° 16:51:19 10° 212° (SSW) 2,446 5.2 -14.5°
Maximum altitude 16:56:56 73° 297° (WNW) 881 2.4 -15.4°
Drops below altitude 10° 17:02:37 10° 23° (NNE) 2,477 4.3 -16.4°
Enters shadow 17:03:35 - 24° (NNE) 2,840 4.6 -16.6°
